User: anonymous   Login
Location: San Pelegr�n
(42.1868°N, 0.0079°E)
Time: 17:20:34
(UTC+00:00)
Language:

Cosmos 1812 Rocket - Orbit

View from above orbital plane
View from above orbital plane
View from above satellite
View from above satellite

Ground track
Ground track

The orbit data is extracted from the following two-line orbital elements,

1 17296U 87003B   20099.85717123 +.00000083 +00000-0 +71936-5 0  9999
2 17296 082.5288 144.6697 0020612 077.4169 282.9349 14.83288055774214
Epoch (UTC): 08 April 2020 20:34:19
Eccentricity: 0.0020612
inclination: 82.5288°
perigee height: 604 km
apogee height: 633 km
right ascension of ascending node: 144.6697°
argument of perigee: 77.4169°
revolutions per day: 14.83288055
mean anomaly at epoch: 282.9349°
orbit number at epoch: 77421

The dashed part of the orbit path shows where the satellite is in the earth's shadow,  

DLR